Theta_e
330 332 335 336 337 337 338 338 337 336 334 332 331 331 331 332 333 333 333 336 336 336 337 336 335 335 334 334 334 332 332 332 331 331 332 331 330 331 332 331 332 332 332 333 333 333 332 332 332 332 331 331 331 331 332 332 332 333 332 331 330 330 329 329 330 329 329 331 331 331 331 330 329 330 329 328 329 330 330 330 331 331 331 332 331
333 334 333 334 336 336 336 337 338 336 332 330 331 330 330 333 334 334 334 335 336 335 336 335 334 334 333 332 332 331 332 330 330 330 330 330 330 330 331 330 331 331 331 332 332 332 332 331 332 331 331 331 331 331 332 332 332 333 332 331 331 330 329 329 330 329 329 331 331 331 331 330 329 329 329 328 329 329 330 330 330 330 330 330 330
339 336 332 334 336 336 335 336 337 335 331 332 333 332 331 332 333 334 334 333 333 333 335 335 334 332 330 330 330 330 331 330 329 328 328 330 329 329 329 328 327 328 330 330 330 330 331 330 331 331 331 331 332 331 332 332 332 332 332 331 330 330 330 330 331 331 330 330 331 333 333 331 328 327 328 328 328 328 329 329 328 329 329 330 330
342 336 333 335 336 335 335 335 335 332 331 333 334 333 333 333 333 333 332 331 330 333 335 334 333 331 329 329 329 329 329 327 326 325 327 329 328 329 329 328 326 328 330 329 328 329 329 329 329 331 331 331 332 331 331 332 331 331 331 331 330 330 330 331 331 332 331 330 332 332 332 332 330 327 326 327 327 328 328 328 327 328 329 329 330
340 336 334 336 335 335 335 334 332 330 332 333 332 333 335 333 333 333 331 330 330 333 334 332 331 330 328 328 327 327 326 325 325 326 328 329 328 328 328 327 325 326 327 326 326 328 329 328 328 330 331 331 331 331 331 332 331 330 330 330 330 330 331 331 331 331 330 329 330 330 332 334 331 327 326 326 326 327 327 328 328 327 328 328 329
338 336 335 334 333 334 335 334 333 332 332 332 331 333 335 334 334 334 332 332 331 332 332 331 330 329 328 327 326 325 324 325 325 325 326 327 327 328 327 326 326 325 325 325 326 327 327 328 327 328 330 330 330 330 330 330 330 330 329 329 330 330 330 330 330 331 330 329 328 329 332 333 330 328 329 327 326 327 327 328 329 328 328 328 327
336 334 332 331 330 332 334 333 333 333 332 332 332 333 335 335 334 334 334 333 331 331 331 331 331 329 328 326 324 323 324 324 324 323 324 325 326 327 327 326 325 324 325 325 327 326 327 328 327 326 327 328 327 328 328 329 329 329 329 329 329 329 329 330 330 330 330 329 329 329 329 330 329 329 329 327 327 327 326 327 328 328 328 327 327
332 330 329 329 329 332 332 332 332 333 332 331 332 334 334 333 332 333 334 332 330 331 331 332 330 328 326 323 322 323 324 323 323 323 324 325 324 325 326 325 324 324 325 325 325 326 326 327 326 326 326 326 326 326 327 328 328 329 329 329 329 329 329 329 330 330 330 329 329 329 329 330 329 328 327 327 327 327 325 326 327 328 327 327 327
329 328 329 329 331 332 332 332 332 332 333 332 334 335 332 330 331 332 332 331 330 330 331 331 328 326 324 324 324 325 325 323 322 323 324 323 323 324 325 325 324 325 325 325 324 324 324 325 325 325 326 326 326 325 326 327 329 329 329 329 329 328 328 329 329 329 328 329 329 329 329 329 329 328 327 326 325 326 326 326 327 327 327 327 327
329 328 328 329 331 332 332 332 333 333 333 334 335 334 330 329 331 331 330 329 329 330 330 328 325 325 327 328 327 326 325 324 323 323 322 323 324 325 325 325 324 324 324 325 325 323 324 324 323 324 325 325 324 325 326 327 329 329 329 329 329 328 327 328 328 328 328 328 328 328 328 328 327 327 327 326 325 325 326 326 326 326 327 327 327
330 328 328 329 330 331 331 332 334 334 334 335 334 332 330 329 329 328 328 326 326 328 327 324 325 327 329 328 327 326 324 323 323 323 323 324 325 325 325 325 325 324 324 324 324 324 323 323 323 323 325 325 325 325 325 326 327 327 327 328 328 328 328 328 327 327 327 326 326 326 326 326 326 327 327 326 325 324 325 326 325 326 326 327 326
330 328 328 329 330 330 331 332 333 335 334 334 333 332 330 330 329 327 326 324 323 324 324 324 326 329 328 327 326 325 323 322 322 323 324 325 323 324 325 325 324 324 323 323 323 323 322 322 322 322 322 323 323 323 324 325 325 325 326 326 327 327 326 326 326 326 326 326 326 326 325 326 325 326 327 327 325 324 325 325 325 326 326 326 325
329 329 329 329 330 331 331 332 333 334 334 333 332 331 331 330 328 326 325 323 321 322 326 326 325 327 327 326 325 323 322 322 323 323 324 324 323 325 325 324 323 322 322 322 321 321 321 323 323 321 320 320 320 321 322 323 322 323 324 324 324 323 321 320 320 321 321 322 323 323 325 325 325 325 326 326 325 325 325 324 324 324 324 324 325
328 329 330 330 330 330 331 332 333 333 333 332 331 330 330 329 328 327 325 323 321 324 327 323 321 326 327 325 324 322 322 322 322 323 324 323 324 326 325 324 322 321 322 323 321 320 320 321 322 321 320 319 319 320 320 321 320 320 321 321 321 319 317 316 316 316 316 316 317 318 321 323 324 324 324 325 325 325 325 323 321 322 323 323 323
329 330 330 330 329 329 330 331 332 333 332 332 330 330 329 328 327 328 326 323 322 325 326 322 323 329 327 324 323 322 322 322 323 323 323 324 325 325 325 323 321 321 322 322 321 320 320 320 320 321 320 318 318 318 318 318 317 316 317 318 318 317 316 315 315 315 315 315 315 315 316 317 319 321 321 322 324 324 323 321 319 320 321 318 316
330 331 331 331 329 329 330 331 332 333 332 331 331 330 329 328 327 328 327 325 322 324 326 326 328 330 327 324 323 323 322 323 323 323 324 323 324 325 324 322 320 320 320 319 319 319 318 318 319 319 319 317 317 316 316 316 316 316 315 315 316 316 316 316 316 316 315 315 314 314 315 315 315 315 315 316 320 321 320 320 318 319 317 314 314
331 332 332 331 329 329 330 332 333 332 332 332 331 331 330 328 327 328 328 328 325 323 326 328 329 330 328 325 324 323 323 324 324 324 323 322 323 324 323 321 319 318 318 317 316 316 317 318 318 318 318 317 316 316 315 315 316 316 315 316 316 316 316 316 316 316 315 314 314 313 313 315 315 314 313 313 315 317 318 318 319 318 314 314 316
330 331 331 330 330 329 331 332 332 332 332 332 331 331 330 329 328 327 328 330 328 326 328 329 328 329 329 327 325 323 322 324 324 323 322 322 323 324 322 320 319 318 317 316 315 315 316 317 317 317 317 316 316 314 314 314 314 315 315 315 315 314 314 315 315 315 315 315 314 313 313 313 314 314 313 313 313 315 316 316 318 316 313 313 314
329 329 329 330 330 330 331 331 331 332 332 331 331 331 331 331 330 328 329 329 329 329 330 330 328 329 329 327 325 324 323 323 323 323 322 322 323 323 322 321 319 317 316 315 316 315 315 315 316 316 316 316 315 315 314 314 315 315 315 315 315 314 314 315 315 315 316 316 315 314 313 313 313 313 313 313 313 314 315 316 317 315 313 312 310
328 327 329 329 328 328 330 330 331 331 331 331 331 331 331 332 331 331 331 330 330 331 331 330 329 329 328 327 325 324 323 323 322 322 321 322 322 322 321 321 319 317 316 316 316 315 315 316 316 316 316 316 315 314 315 315 315 315 315 315 315 315 315 315 314 314 314 315 315 315 314 313 313 312 312 313 313 314 314 315 316 315 312 311 309
329 329 328 328 327 327 328 329 330 330 330 330 330 331 332 332 332 331 331 331 331 332 332 330 330 329 328 328 326 324 323 322 322 321 321 321 321 322 321 320 319 317 317 317 317 316 317 316 316 316 316 315 315 315 316 315 315 314 315 315 315 314 315 315 314 314 314 314 314 314 314 314 313 314 313 313 314 314 315 315 315 315 312 312 312
332 331 329 327 326 326 327 329 329 328 329 329 329 331 332 331 331 331 331 331 331 332 332 330 330 329 328 328 327 324 322 322 322 321 321 320 321 321 321 320 319 318 317 317 318 318 317 317 316 317 317 316 316 316 317 316 315 315 316 315 314 314 315 314 314 315 315 314 313 313 314 315 315 315 315 315 315 315 315 315 315 315 313 312 312
330 331 330 328 327 327 328 328 328 327 327 328 329 329 328 329 330 329 330 329 329 330 330 329 329 329 328 327 327 325 323 322 322 321 320 320 321 321 321 320 319 318 317 317 318 318 318 318 318 318 318 318 317 317 317 316 315 316 316 315 314 314 315 314 313 314 314 314 313 312 312 314 315 315 315 316 315 315 315 315 315 314 313 312 312
327 328 328 327 327 328 328 326 326 326 326 326 327 327 326 327 327 326 326 326 327 329 329 329 328 328 328 327 328 326 323 321 322 321 321 321 320 320 320 319 319 319 318 317 318 318 318 318 318 318 318 318 318 318 318 316 315 316 317 317 316 315 314 315 314 314 315 315 316 314 313 313 314 315 316 316 316 315 315 315 315 315 314 313 312
327 327 327 326 325 326 326 325 325 325 325 325 325 325 326 325 324 325 326 326 327 329 328 327 328 328 327 326 326 326 323 322 322 321 322 322 321 320 320 318 318 318 318 318 318 317 318 318 317 318 318 318 318 319 319 318 316 317 318 317 317 316 316 318 317 317 316 316 317 317 315 315 314 314 316 316 316 315 315 316 315 315 315 314 313
327 327 327 325 325 324 324 324 324 324 324 323 323 323 324 324 324 324 324 324 325 326 326 326 326 326 325 324 325 325 323 322 323 322 323 323 322 321 319 319 320 318 317 318 318 317 317 318 317 318 317 318 318 318 319 319 319 319 319 319 319 318 318 319 319 319 318 318 318 318 317 316 316 315 315 316 315 315 315 316 316 315 315 315 314
325 325 325 324 323 323 323 323 323 323 323 323 323 324 324 324 324 323 323 323 323 324 323 323 322 322 324 324 325 325 323 321 322 322 322 321 320 320 320 321 322 320 317 318 318 316 316 317 317 318 318 318 318 318 318 319 319 319 320 320 320 320 320 321 321 320 320 319 319 319 318 317 317 317 317 316 316 314 314 315 315 315 315 315 314
324 324 324 324 324 324 323 322 323 322 322 322 322 323 324 324 323 323 323 323 324 324 324 323 322 323 324 324 324 325 325 321 320 321 320 319 319 320 320 321 322 321 318 319 319 317 316 317 317 317 317 318 318 318 319 319 320 321 321 321 321 321 321 321 321 321 321 320 320 320 319 319 318 318 318 317 316 315 314 313 313 314 314 314 314
316 315 315 315 316 318 319 320 322 323 323 323 322 322 322 322 322 322 322 323 323 324 323 322 323 323 323 324 324 326 326 323 321 321 320 318 318 320 321 320 321 321 319 319 319 318 317 317 317 317 317 318 318 318 319 320 320 321 322 322 321 322 322 322 321 321 321 321 321 320 320 320 319 319 318 318 317 316 315 313 312 312 312 313 314
307 306 306 306 307 308 309 311 314 315 316 318 320 322 322 321 322 322 323 323 322 323 323 322 322 322 322 323 324 325 325 324 324 323 321 319 318 320 321 321 321 321 321 320 320 319 319 318 318 319 318 318 318 319 319 318 320 321 321 321 321 321 321 321 321 320 320 320 321 320 320 320 320 320 319 318 317 317 316 314 313 312 312 313 313
305 304 304 304 304 305 305 305 306 307 308 309 312 317 320 322 322 322 322 322 322 322 322 322 321 322 323 323 324 324 324 324 323 323 322 321 321 321 322 322 322 322 322 321 320 320 319 319 319 320 320 319 319 319 319 319 319 319 320 320 321 321 322 321 320 319 319 319 320 320 320 320 320 320 319 318 318 317 316 315 314 314 314 313 313
304 304 304 304 304 303 304 304 304 305 305 305 306 309 311 315 320 322 322 322 321 322 322 321 321 322 322 323 323 323 323 323 323 322 322 321 322 323 323 322 323 323 322 322 321 320 320 319 319 319 319 320 320 320 320 319 319 319 319 321 322 322 322 322 321 320 319 319 319 319 319 320 320 320 319 319 318 317 317 315 315 314 314 313 313
303 303 304 304 303 303 302 303 303 304 304 304 305 305 305 308 313 317 319 319 318 318 318 319 320 321 322 323 322 321 322 322 321 321 321 321 323 324 324 323 323 323 323 323 322 321 321 320 320 320 319 319 319 320 319 320 320 319 319 321 321 321 321 321 321 320 319 319 319 319 318 319 319 319 319 319 318 318 317 316 315 314 313 312 312
303 303 303 303 303 302 301 302 302 303 303 304 304 305 305 305 307 309 311 311 309 309 310 311 312 314 316 318 320 320 321 321 321 321 321 322 323 324 324 324 324 323 323 323 323 322 322 321 320 320 320 319 319 319 319 320 321 320 319 320 320 320 320 320 320 320 318 318 318 318 319 318 319 319 319 319 319 318 317 316 315 314 313 312 311
303 303 303 302 302 301 300 301 301 302 303 303 303 304 305 305 305 306 307 307 306 306 306 306 306 307 308 309 312 314 316 318 320 320 322 323 323 323 324 323 323 323 323 322 322 322 322 322 321 321 320 320 319 319 320 321 321 320 319 319 319 319 320 320 319 318 317 317 317 318 318 319 318 319 319 319 319 319 318 317 315 314 313 313 311
304 303 303 303 302 301 300 301 302 302 303 304 303 304 304 304 304 306 306 306 306 306 306 306 305 306 305 305 307 309 311 312 314 315 317 319 321 323 323 323 322 321 321 321 321 321 321 321 321 321 321 322 321 321 322 322 321 320 320 319 319 319 320 319 318 317 317 316 317 317 318 318 318 318 319 319 319 318 317 316 315 314 313 312 311
304 304 304 303 302 301 300 301 301 301 302 303 302 302 303 303 303 305 305 305 305 305 305 305 305 305 305 305 305 306 308 309 310 311 312 313 315 318 320 322 322 320 320 319 318 318 319 319 320 320 320 321 322 323 323 323 322 321 321 320 320 320 320 318 318 317 317 316 317 317 317 317 318 318 319 319 319 318 317 315 314 313 312 310 309
303 303 303 303 302 302 301 301 301 301 301 302 301 300 301 302 303 304 304 303 303 304 304 304 305 305 304 304 304 305 306 307 308 308 309 310 311 312 313 316 317 317 318 318 318 317 317 317 319 319 319 320 321 322 323 322 322 321 321 320 320 319 318 318 318 317 316 316 316 316 316 316 316 318 319 319 318 317 316 315 313 312 310 308 308
301 302 302 302 302 301 301 301 301 301 301 301 300 300 301 302 303 303 303 302 302 302 303 303 303 303 303 304 304 304 304 305 305 305 307 308 309 309 310 311 311 312 314 316 318 319 318 317 317 318 318 319 320 321 321 321 321 321 321 320 320 319 319 319 319 317 316 315 315 315 316 315 315 318 319 318 316 316 315 314 312 311 309 308 309
300 301 301 302 301 301 301 301 301 301 301 301 301 301 302 302 302 302 302 301 301 301 301 301 302 302 303 303 303 303 303 303 303 304 304 305 305 306 307 308 309 310 311 312 314 316 318 318 317 316 316 317 319 320 320 320 320 319 319 319 319 318 319 319 319 317 316 315 314 315 316 316 317 318 318 316 315 315 314 313 311 310 309 309 310
299 300 301 302 301 301 301 301 301 301 301 301 301 301 301 301 302 301 301 300 300 300 300 300 300 300 301 301 301 301 302 302 302 303 303 303 304 304 304 305 306 308 309 310 311 312 314 315 316 317 316 316 316 317 317 318 318 317 316 317 318 318 318 318 317 315 315 314 312 313 316 317 317 317 316 315 315 314 313 312 310 310 310 310 310
299 299 300 301 301 301 301 301 301 301 300 301 301 301 300 301 301 301 300 300 300 300 300 300 300 300 300 300 300 301 301 301 301 301 302 302 302 303 303 304 304 306 306 307 308 309 310 311 313 315 316 316 316 315 314 315 315 315 315 316 318 318 317 316 314 313 313 312 310 310 313 313 313 314 314 313 313 313 312 311 310 309 309 309 308
299 299 300 301 301 301 300 300 301 300 300 300 300 300 300 300 300 300 299 299 300 299 300 300 300 300 300 300 300 300 300 301 301 301 301 301 301 302 302 303 303 304 305 305 306 307 308 309 311 312 313 315 316 316 314 314 313 313 313 315 317 318 316 315 314 313 312 311 309 309 310 310 309 309 311 311 311 310 310 309 308 307 307 306 305
299 299 300 300 301 300 300 300 300 299 299 299 299 299 299 299 299 299 299 299 299 299 299 299 299 299 299 299 299 299 300 300 300 300 300 300 301 301 301 302 301 302 303 304 305 306 307 308 309 310 311 313 315 316 316 315 314 313 312 313 315 317 316 314 313 313 313 311 309 308 308 308 307 307 308 309 309 308 307 306 306 305 304 303 302
299 299 300 300 300 300 300 299 299 299 299 299 299 299 299 299 299 299 299 299 299 299 299 299 299 299 298 299 299 298 299 299 299 299 299 300 300 300 300 301 300 300 301 302 303 304 305 306 307 309 310 310 312 314 315 316 315 314 314 314 315 317 317 315 314 314 313 312 310 309 307 306 306 306 306 307 307 306 306 305 304 303 302 301 301
299 299 300 299 299 299 299 299 299 299 299 299 299 299 299 299 298 298 298 298 298 298 298 298 298 298 298 298 298 298 298 298 298 298 298 298 299 299 299 299 299 299 301 302 302 302 302 303 304 306 308 310 311 313 314 315 314 312 313 315 316 317 318 317 315 313 313 312 310 308 307 306 305 305 305 305 305 304 303 303 302 301 300 300 300
299 299 299 299 299 299 299 299 299 298 299 299 299 299 298 298 298 298 298 297 297 297 297 297 297 297 297 298 298 298 298 297 297 297 297 297 297 298 298 298 298 298 298 299 299 300 300 301 301 302 303 306 309 311 311 311 310 308 308 310 312 313 313 314 313 312 312 311 308 306 305 305 304 304 304 304 303 303 302 302 301 299 299 299 299
299 299 299 299 298 298 299 299 298 298 299 299 299 298 298 298 298 297 297 297 297 297 297 297 297 297 297 297 297 297 297 297 297 297 296 296 296 297 297 297 297 297 297 297 298 298 298 299 299 299 300 302 305 309 310 309 309 308 305 305 307 309 309 310 310 311 310 308 304 303 303 303 303 302 302 302 302 302 301 301 300 299 299 299 298
299 299 298 298 298 298 298 299 298 299 299 299 298 298 298 298 297 297 296 296 296 296 296 296 297 297 297 297 297 296 296 296 296 296 296 295 295 295 296 296 296 296 296 297 297 297 297 298 299 299 299 300 302 305 308 308 309 309 306 304 304 307 308 308 309 310 309 305 302 301 301 301 301 301 301 301 301 300 300 299 299 298 298 298 297
299 299 298 298 298 298 298 299 299 299 299 298 298 298 298 297 297 297 297 296 296 296 296 296 296 296 297 296 296 296 296 296 296 296 296 295 295 295 295 295 295 295 295 296 296 296 297 298 298 299 300 300 300 302 305 307 308 308 307 305 304 305 307 307 306 305 304 302 300 299 299 299 300 301 301 300 300 299 299 298 298 297 297 297 297
299 299 299 298 298 298 299 299 299 298 298 298 298 298 298 298 297 297 297 296 296 296 296 296 296 296 296 296 296 296 296 296 296 296 296 296 296 296 296 296 295 295 295 295 296 296 297 297 298 299 300 300 301 302 302 303 306 307 307 306 305 305 306 306 305 303 301 300 299 298 298 298 300 301 301 300 299 298 298 298 297 296 296 296 295
Wind_Speed
18 27 29 26 21 21 22 25 23 18 22 27 28 27 26 28 29 27 25 25 23 22 21 20 19 18 16 15 15 15 16 18 17 15 14 13 12 11 9 8 8 7 7 7 6 5 4 4 4 4 5 5 5 5 5 4 4 5 4 4 3 4 5 4 5 8 9 11 11 14 16 14 12 9 5 6 7 7 8 8 9 9 8 8 10
14 17 19 20 19 20 23 25 24 20 22 26 29 30 28 27 28 27 24 23 23 22 22 20 18 17 15 15 18 18 18 19 19 16 16 15 13 12 10 9 8 8 7 7 6 5 5 4 3 4 4 5 5 6 5 5 5 5 5 5 5 5 5 6 5 5 6 8 9 10 12 14 15 12 6 6 7 6 6 6 6 7 6 6 8
13 11 11 17 20 21 22 23 22 21 23 25 27 31 32 29 28 27 25 24 24 24 22 19 16 16 16 17 19 18 18 18 16 14 15 15 14 12 10 9 8 9 10 9 8 7 6 5 4 4 4 4 5 6 6 6 5 6 5 6 7 7 6 6 4 3 5 8 9 6 4 7 11 11 7 4 6 7 7 6 5 5 6 7 7
13 11 9 14 19 22 22 21 19 21 23 25 26 29 31 31 29 29 28 27 27 25 20 17 15 16 18 19 19 20 19 17 14 13 14 14 14 12 10 9 8 9 11 10 8 7 7 6 5 4 4 4 5 5 5 5 4 6 6 6 7 9 8 6 4 4 6 6 4 2 2 4 4 7 8 4 3 7 8 7 6 6 6 7 7
12 13 10 11 17 21 22 21 18 19 23 24 24 27 30 32 31 29 29 28 26 22 19 18 18 20 22 23 23 22 21 19 16 15 16 16 13 12 12 10 10 12 12 10 8 7 7 6 5 4 5 5 5 5 4 3 3 5 6 5 7 8 8 7 5 5 6 5 4 3 3 3 2 9 11 4 2 5 8 9 8 7 7 8 8
11 12 10 13 18 20 23 23 20 20 23 22 23 26 29 30 30 30 30 28 25 22 21 22 22 24 27 26 25 23 21 18 17 17 18 16 14 13 12 11 11 12 11 10 10 9 8 6 5 6 6 6 5 4 3 4 4 4 4 4 6 7 7 8 7 5 5 5 5 4 4 6 7 10 8 2 1 3 5 8 10 9 8 8 9
12 12 12 15 17 16 17 20 21 22 22 22 23 25 26 27 30 33 33 31 27 25 25 25 24 23 24 23 22 22 20 17 15 16 17 17 15 14 13 11 10 9 9 10 11 11 10 8 6 7 8 9 8 7 5 6 6 4 3 4 5 6 6 7 8 7 6 5 5 5 8 11 10 10 7 4 2 2 4 6 9 10 9 9 9
13 15 15 14 14 13 14 16 17 21 22 22 23 24 25 27 30 33 33 31 29 28 27 26 25 23 23 22 21 20 20 18 17 17 18 17 14 13 13 10 9 9 10 11 12 11 10 11 9 7 9 11 9 7 7 8 8 7 6 5 4 4 5 6 7 7 7 6 5 7 9 9 10 12 13 11 6 1 2 4 7 10 11 10 10
15 15 13 13 14 17 21 19 17 22 25 24 23 24 26 28 30 31 31 30 30 30 28 26 25 25 24 22 21 21 21 19 18 18 17 14 13 14 14 12 11 12 12 12 12 10 10 11 11 9 11 12 9 7 7 8 9 9 8 8 7 7 6 6 6 6 7 8 8 8 8 8 9 11 15 16 10 5 2 0 5 10 11 12 13
15 15 14 16 20 25 30 29 26 27 26 24 23 25 27 28 30 31 29 30 31 30 28 27 27 26 22 21 24 25 22 19 18 17 15 14 15 15 14 13 12 12 13 12 12 11 11 10 11 12 12 11 10 10 9 9 10 10 10 10 10 10 9 9 8 7 8 9 9 9 10 11 10 8 11 16 12 7 5 4 6 9 9 11 15
13 13 13 17 22 27 31 30 30 30 28 26 26 27 29 30 30 30 29 29 30 29 28 28 28 25 22 23 26 25 22 20 19 18 16 15 16 16 14 13 11 10 11 12 12 13 12 10 10 12 13 12 13 12 11 11 12 12 12 13 12 12 12 11 11 11 11 11 10 9 12 11 10 9 12 15 12 8 8 6 7 11 11 12 15
11 11 11 13 16 20 24 26 28 31 31 31 31 31 31 31 31 31 30 30 31 29 29 30 29 25 22 23 23 22 21 21 21 19 17 15 15 15 15 14 12 10 9 9 12 13 13 12 10 12 14 14 13 12 11 11 13 13 13 14 14 13 13 12 11 11 11 12 11 10 11 11 11 13 15 18 18 17 14 9 9 12 9 10 16
10 11 12 12 12 15 19 23 26 30 33 35 35 34 34 32 32 33 32 31 30 29 28 28 26 22 21 21 21 21 21 21 20 19 16 15 15 17 16 14 13 12 11 10 11 12 13 13 11 12 14 13 12 12 11 11 12 13 13 14 14 14 14 13 13 12 12 12 11 10 10 11 12 14 17 20 20 20 17 12 12 13 9 10 15
10 12 13 12 12 15 18 21 23 26 30 33 34 34 33 31 31 31 31 31 30 29 26 24 23 21 20 21 22 21 21 20 19 18 17 15 16 17 15 14 15 15 14 13 12 13 12 12 12 13 13 13 13 13 12 12 12 12 13 14 14 14 15 15 15 15 16 16 15 15 14 12 12 13 17 19 18 18 17 13 14 13 12 13 14
9 11 11 11 13 16 18 20 20 18 18 22 24 24 24 25 26 27 28 29 29 27 24 23 22 20 20 22 22 21 20 19 19 17 17 16 15 15 15 16 17 16 15 13 13 14 14 13 13 14 13 14 15 14 12 12 12 13 14 14 15 15 15 17 16 16 16 16 16 18 18 17 14 13 13 13 15 16 14 15 17 12 8 9 9
8 8 9 8 10 13 14 14 15 14 13 16 17 18 19 23 24 24 26 28 27 25 22 21 21 19 20 22 21 20 19 18 19 17 16 15 14 14 17 17 17 17 16 14 14 15 15 15 15 15 14 13 14 14 14 13 13 14 14 15 15 15 15 17 17 17 16 14 14 16 17 17 16 15 15 13 13 13 11 17 21 15 9 6 5
8 7 7 7 8 10 11 12 14 15 15 15 16 18 20 24 25 23 23 23 24 24 22 20 20 18 19 21 20 19 18 18 18 17 16 15 14 15 18 18 17 17 16 15 15 15 15 15 16 15 14 13 13 14 14 13 13 14 15 16 15 14 15 17 17 16 15 14 14 14 14 14 14 14 15 15 15 15 13 14 18 18 16 10 4
8 7 7 7 8 12 14 15 16 18 19 18 19 21 22 24 25 24 23 21 21 22 21 20 19 18 19 20 19 19 18 17 17 17 16 16 15 17 19 18 17 17 15 15 15 15 15 15 15 15 15 15 14 14 15 14 15 16 16 16 15 15 16 17 16 16 15 14 14 14 14 13 13 14 14 14 15 15 14 13 11 19 23 18 11
9 8 8 7 9 13 18 20 21 20 21 21 21 21 21 20 21 22 22 20 20 20 19 19 18 17 18 19 18 18 17 16 16 17 16 16 16 18 19 18 17 16 16 16 15 14 15 15 15 15 15 16 15 15 16 16 16 16 15 15 16 16 17 17 16 15 14 14 13 13 13 13 13 14 15 15 15 14 13 14 12 19 25 24 21
8 7 7 8 10 13 16 20 22 22 21 20 19 17 16 15 16 18 19 18 18 17 16 17 18 17 17 17 17 17 17 16 16 18 17 15 16 17 17 17 16 16 17 16 15 14 15 15 14 15 16 16 15 16 16 16 16 16 16 16 15 14 15 15 15 13 13 13 14 13 12 12 11 11 12 13 13 14 14 15 14 19 23 23 24
7 7 6 6 8 10 10 12 16 18 18 18 16 13 12 12 12 14 17 18 18 17 16 16 16 18 18 17 17 17 16 15 16 17 16 15 15 16 16 15 16 16 17 16 15 14 14 14 15 16 16 16 15 15 15 15 15 15 14 14 13 13 14 14 14 13 12 12 13 13 12 10 9 9 10 10 11 14 15 16 15 17 20 18 17
7 8 9 7 9 10 8 9 12 14 13 13 12 9 9 11 13 15 17 17 16 16 16 16 15 18 20 17 16 18 17 15 16 16 16 15 15 16 16 15 16 16 16 16 15 14 14 14 15 15 14 14 14 13 14 15 15 13 12 14 15 14 14 13 13 13 12 10 10 10 10 9 9 11 11 11 12 15 15 17 17 16 17 14 13
4 5 6 6 9 11 9 9 9 10 10 10 9 8 10 13 13 14 14 13 13 14 15 15 13 15 20 18 16 16 16 15 16 15 15 15 15 16 15 15 16 15 14 16 15 14 14 14 14 14 13 13 14 13 12 14 15 14 12 13 14 13 12 12 12 12 11 9 8 9 9 9 9 10 11 11 13 14 12 15 17 16 15 14 13
3 3 5 7 9 10 11 9 7 8 11 11 9 9 14 15 10 9 12 13 12 14 16 14 11 10 13 15 14 14 15 16 16 14 14 15 15 15 15 15 16 14 14 16 15 14 14 14 15 14 13 13 13 13 12 11 14 14 12 11 11 11 10 10 10 12 11 9 8 7 7 7 8 8 8 8 10 11 11 12 13 13 14 14 14
4 5 6 8 7 7 8 7 5 5 5 7 7 6 6 7 6 7 10 12 11 12 14 14 12 8 5 2 2 7 11 14 15 16 15 16 16 15 14 15 14 14 14 15 15 14 13 14 15 14 14 13 13 13 11 10 12 12 10 10 10 10 10 8 8 11 11 10 8 7 7 7 7 6 5 6 8 10 11 13 13 12 13 15 14
8 8 7 6 7 9 9 8 6 7 10 13 11 8 8 9 9 9 8 7 5 5 9 10 10 9 5 4 5 7 12 11 11 16 17 16 15 14 14 14 13 13 13 13 14 14 13 14 15 14 14 14 13 12 11 10 10 10 9 9 9 9 9 6 6 8 9 9 8 8 8 8 8 7 5 6 7 9 12 14 14 12 12 13 13
9 9 8 7 9 8 9 13 14 12 14 15 11 10 9 7 6 7 7 6 5 4 7 6 6 10 8 6 8 13 16 14 13 15 16 15 15 14 14 14 12 13 13 12 14 15 13 13 14 13 14 15 13 13 12 12 11 10 9 9 9 10 10 7 6 6 6 6 6 6 8 9 9 8 7 7 7 8 11 13 12 11 10 10 8
10 9 8 8 7 6 8 14 14 12 15 16 12 11 11 10 9 7 5 6 5 7 9 7 7 12 11 10 13 17 18 17 17 17 17 17 16 14 14 14 12 13 13 11 12 14 13 13 13 13 14 16 15 15 14 14 13 12 10 9 10 12 12 10 9 7 7 7 8 7 8 9 9 8 7 8 8 7 9 10 11 10 8 6 4
13 12 11 10 9 8 9 12 12 14 17 16 12 10 11 12 11 10 10 9 5 5 7 5 4 8 10 10 14 17 18 18 18 18 19 20 17 14 13 13 12 12 13 13 12 13 12 12 12 12 14 16 17 16 16 15 14 14 12 11 11 12 12 11 10 9 8 8 9 10 10 10 10 8 7 8 9 7 7 9 10 9 6 4 4
13 12 12 12 11 13 17 19 19 19 18 15 12 11 11 11 10 9 10 10 7 4 5 6 4 4 6 9 11 13 15 17 17 15 16 18 18 14 11 11 10 10 13 14 14 13 13 11 11 11 11 12 14 14 15 14 14 14 13 12 11 12 12 12 11 11 11 11 11 12 12 11 11 10 8 9 9 8 7 7 8 8 6 5 6
12 11 12 12 13 16 21 23 23 23 24 23 19 13 10 11 11 12 12 11 10 8 8 9 8 5 5 8 9 9 11 13 15 13 12 13 15 14 12 11 10 9 11 12 13 13 13 11 10 10 10 11 11 10 11 12 12 13 13 12 11 12 13 14 14 13 14 15 14 14 14 13 13 12 10 10 11 10 9 8 8 7 7 6 8
12 11 12 12 12 15 18 19 21 23 23 24 26 25 21 15 10 13 16 15 13 12 11 12 13 10 6 6 6 6 6 8 10 10 11 11 12 13 13 12 11 10 10 10 10 11 12 11 10 11 12 13 13 12 11 11 12 13 14 13 12 12 13 14 14 14 15 15 15 15 16 15 15 14 13 12 13 12 11 10 9 8 8 8 9
11 10 10 10 11 14 17 19 21 22 22 25 29 30 30 27 21 15 16 16 15 15 15 14 14 13 10 10 12 13 11 12 13 13 15 14 11 11 11 11 11 12 12 12 13 13 14 13 12 12 13 14 15 16 14 12 13 15 16 15 13 13 13 13 13 14 15 16 16 16 17 17 16 16 15 14 14 13 13 12 11 10 9 9 9
10 9 9 10 13 16 20 22 22 23 24 28 32 31 30 32 32 27 24 24 25 27 25 21 18 14 11 9 11 12 12 14 16 15 13 9 7 7 8 8 9 11 11 12 14 15 16 16 14 13 14 14 16 17 16 14 14 16 18 17 15 15 15 14 15 16 16 17 17 17 18 18 16 17 17 17 14 13 13 13 12 11 11 10 10
9 9 10 13 16 19 22 23 23 25 28 30 31 31 31 32 32 30 29 29 30 30 30 29 28 27 24 22 17 13 11 8 8 8 7 6 7 7 7 7 8 9 9 10 11 13 14 15 15 14 14 16 17 18 17 15 15 16 18 19 17 16 16 16 16 16 15 15 16 16 17 18 17 17 17 17 15 13 12 11 11 11 11 11 11
9 10 12 15 18 20 22 23 23 24 28 28 28 28 29 30 30 28 28 29 29 29 28 28 27 27 27 28 26 23 20 18 16 12 8 3 5 7 7 7 7 7 9 10 11 12 13 13 14 14 14 15 16 16 16 16 16 16 17 18 18 17 16 16 16 14 13 12 13 15 16 17 17 16 16 16 15 13 11 10 10 10 10 10 9
11 13 14 15 17 20 22 24 25 25 25 24 24 25 26 27 27 27 26 26 26 26 25 24 23 22 22 24 25 24 21 19 18 16 15 12 6 1 3 5 6 6 8 9 10 11 12 12 13 14 14 15 16 16 16 17 17 17 18 18 18 17 17 16 14 13 12 12 13 14 14 15 15 15 15 16 14 12 11 9 8 10 10 9 8
13 15 15 16 18 19 22 23 24 24 23 22 22 23 24 25 25 24 23 24 24 24 22 21 20 18 17 18 20 21 20 18 17 16 15 14 12 10 8 5 5 7 9 12 12 11 11 13 14 14 14 14 16 17 18 19 19 19 19 18 17 16 17 16 13 12 12 12 13 13 13 14 15 15 15 16 14 12 11 9 9 11 12 10 9
12 14 15 16 18 19 20 22 22 21 20 19 20 20 22 23 22 21 21 22 22 21 19 18 17 15 14 14 15 16 16 17 17 16 15 15 14 13 12 11 10 11 11 12 14 16 14 13 14 15 14 13 15 16 17 18 19 19 19 18 16 17 17 15 13 13 13 13 13 13 12 14 16 16 17 16 13 12 12 10 10 13 13 10 9
12 13 14 16 19 20 20 21 22 20 17 17 17 17 19 20 19 19 20 20 19 18 17 16 15 14 13 13 14 15 15 16 16 16 16 15 15 15 15 15 14 14 15 14 13 14 17 18 17 17 16 16 16 17 18 19 19 18 18 18 17 18 18 15 14 16 17 16 14 12 12 13 17 19 19 17 15 13 12 11 11 13 13 11 9
17 16 16 18 19 20 20 19 19 17 16 16 16 16 17 17 17 18 18 17 17 16 16 16 16 16 16 15 15 15 16 16 17 17 17 16 16 16 16 17 17 17 18 17 16 15 15 17 19 21 21 19 19 19 19 19 18 17 17 17 19 20 16 14 18 21 21 20 18 15 15 16 19 21 20 18 17 15 13 13 14 14 13 11 10
17 17 18 19 18 18 18 17 16 15 15 14 14 15 15 13 15 16 16 16 16 17 17 17 17 18 18 18 18 17 17 18 18 19 19 19 18 17 17 17 18 19 20 21 21 20 20 19 18 20 23 23 23 22 20 18 16 16 17 16 19 21 15 13 20 24 22 21 19 18 19 19 18 18 19 18 17 15 14 14 14 13 12 11 10
16 16 16 17 17 17 17 16 14 14 14 13 13 14 15 15 16 17 16 16 17 18 18 17 18 19 19 19 19 19 19 19 19 20 21 22 21 20 19 18 19 19 20 21 22 23 24 24 22 20 20 23 27 26 23 20 18 18 18 18 20 21 16 15 21 24 21 20 19 17 18 18 17 17 17 16 16 15 14 14 15 14 12 11 9
14 14 14 15 16 16 15 15 14 14 14 15 15 16 17 17 18 17 17 17 18 18 18 18 18 19 20 20 20 20 20 20 21 21 21 22 22 22 21 21 21 22 21 20 21 22 24 25 26 25 22 19 24 25 23 23 20 19 20 20 21 22 18 17 21 23 21 20 19 17 17 17 17 17 16 15 16 15 14 14 13 12 9 7 6
11 11 12 14 15 15 14 15 15 15 15 15 15 16 17 18 18 17 18 18 18 18 19 18 18 19 20 20 20 20 20 21 21 21 21 21 22 22 23 23 23 23 23 22 20 20 21 22 23 24 20 15 17 20 22 25 23 21 21 21 21 24 23 20 20 23 25 22 19 19 21 20 18 17 16 15 15 13 12 11 9 7 6 6 7
9 8 11 15 16 14 13 15 14 13 13 13 14 15 16 17 17 17 18 18 18 19 19 19 18 18 19 19 20 20 20 20 20 20 21 21 22 22 23 23 23 23 23 23 22 21 20 21 22 21 16 10 12 14 16 18 18 16 18 19 19 21 23 22 20 21 24 24 22 23 25 23 21 18 17 16 14 12 11 9 7 6 7 8 9
8 9 13 16 16 12 11 13 13 11 10 12 14 15 16 16 16 18 19 19 18 19 19 18 18 18 17 17 18 19 20 20 20 21 22 22 22 23 23 23 23 24 24 25 25 25 24 23 22 22 19 11 9 13 14 13 11 11 11 12 13 15 16 18 20 23 25 26 26 27 26 24 21 19 16 15 15 13 10 9 8 7 8 8 7
11 13 15 15 13 10 10 12 11 9 10 12 14 14 14 15 16 18 19 18 18 18 18 17 17 17 16 16 17 19 20 21 21 22 23 24 24 24 24 23 22 22 23 25 25 25 25 24 23 23 22 18 11 11 15 17 17 16 12 7 6 8 11 14 18 23 26 28 28 28 26 24 22 20 18 16 14 12 10 9 9 10 10 8 5
12 12 13 12 10 7 9 10 9 8 10 12 12 11 11 13 14 15 15 16 15 15 15 15 16 16 16 17 18 20 20 20 20 21 22 23 22 22 23 23 23 22 21 22 23 24 25 25 24 22 21 20 17 14 13 16 19 21 18 12 6 5 7 13 18 23 27 29 30 28 27 26 24 22 20 17 14 13 13 13 12 11 10 7 5
14 13 12 11 8 5 7 7 6 7 9 10 8 6 8 10 12 12 13 14 13 13 13 13 14 16 16 16 17 18 18 18 19 21 22 23 22 21 21 22 23 23 22 21 22 23 23 24 24 22 19 19 19 16 13 12 15 18 19 18 14 9 7 12 19 24 28 31 30 27 24 25 25 23 20 17 16 17 17 15 12 10 10 9 8
15 14 12 10 7 6 7 5 4 5 6 7 5 5 7 10 10 11 12 13 12 12 12 13 14 15 15 16 17 18 19 20 20 21 23 24 25 25 24 22 23 23 23 23 23 22 21 21 23 24 21 17 16 16 14 12 14 17 19 19 19 16 12 13 17 21 23 26 26 22 20 20 21 21 19 18 18 19 19 16 12 10 10 10 8
Wind_Direction
121 136 153 166 168 156 144 151 152 132 129 129 121 127 142 149 152 155 157 157 154 152 147 145 147 149 153 158 154 148 146 143 139 139 140 137 129 131 136 134 136 138 140 151 165 175 173 189 205 209 219 224 219 193 186 205 188 170 189 205 200 167 156 156 160 151 131 115 107 104 105 107 107 101 103 125 135 157 171 175 182 186 187 184 186
137 152 158 154 154 151 144 149 146 128 124 124 122 131 142 148 151 153 152 152 157 154 148 147 149 153 157 154 147 139 139 137 131 130 133 134 134 135 134 135 139 135 135 144 145 147 156 167 173 177 193 204 202 188 188 205 186 176 184 176 164 156 152 147 146 151 139 131 127 113 104 106 103 90 83 105 108 126 163 170 178 186 186 178 177
156 152 140 144 147 139 135 142 138 123 123 133 139 140 143 148 150 150 150 155 162 154 147 152 157 159 153 149 150 144 138 137 133 131 132 131 130 132 132 132 133 131 131 127 114 113 128 137 138 151 160 173 185 179 183 191 184 187 186 172 164 151 148 149 139 131 128 131 133 126 117 111 103 92 89 105 100 110 146 159 154 160 172 173 169
158 135 131 144 132 122 127 136 126 118 132 150 151 140 139 146 149 152 157 163 163 153 152 161 159 160 157 152 151 142 133 132 130 131 134 133 133 137 141 134 124 132 137 124 108 108 115 115 119 142 155 171 186 177 182 189 186 191 191 186 166 146 147 156 155 152 148 143 126 114 124 108 110 111 99 72 73 104 121 127 126 131 148 157 157
148 131 139 132 114 114 125 131 126 130 148 158 154 143 140 145 149 155 159 162 161 156 160 158 144 143 143 138 136 132 129 131 133 137 139 137 137 139 139 136 122 122 127 119 116 125 126 116 108 142 169 174 183 185 191 190 178 181 179 178 164 152 153 156 163 159 151 153 134 115 103 82 136 128 107 62 18 93 106 109 112 118 131 137 136
119 119 125 110 104 114 125 131 136 147 159 162 157 150 146 147 153 157 160 164 165 163 160 151 142 139 138 135 134 132 132 137 143 147 145 138 136 137 136 136 128 123 121 116 123 127 131 138 116 123 148 147 141 151 176 174 161 167 174 177 172 171 168 154 152 150 136 133 124 110 95 104 139 136 113 75 6 53 71 98 104 108 121 131 127
87 90 92 99 106 117 126 131 138 149 163 166 159 153 152 155 160 161 163 167 168 165 158 151 148 145 142 141 139 137 138 142 145 145 142 138 136 138 135 131 127 128 122 119 128 125 121 135 133 119 123 123 117 110 132 149 135 131 155 174 169 171 173 155 149 151 143 125 113 108 99 99 118 132 131 136 122 21 26 85 100 109 116 120 118
90 91 90 103 110 115 120 122 135 150 161 165 161 160 163 165 165 164 164 165 165 163 159 156 153 148 143 142 142 141 140 137 135 135 136 136 136 138 138 135 131 131 122 117 123 125 119 116 118 133 131 125 126 117 121 134 127 121 126 125 125 142 160 151 145 154 148 128 115 114 104 95 105 123 136 139 128 91 27 67 98 113 115 112 112
102 107 112 126 128 125 126 127 142 155 161 165 166 170 171 168 165 163 162 163 164 164 163 161 155 149 146 146 145 143 140 136 134 133 134 134 139 143 141 135 130 128 126 128 126 123 129 117 100 120 139 132 130 128 119 123 125 126 123 114 108 118 138 141 135 141 137 124 121 118 111 114 115 118 131 135 132 133 143 115 120 116 112 114 116
116 130 142 147 143 139 140 147 157 161 164 169 173 178 174 169 167 165 164 164 165 165 165 161 155 151 149 148 146 143 141 140 137 136 137 138 138 138 135 129 126 119 112 121 133 126 129 126 98 103 127 125 111 110 107 107 114 116 114 111 105 106 119 124 120 126 127 121 124 133 136 131 123 120 131 134 133 126 127 152 149 135 124 122 123
129 139 146 148 147 145 147 154 159 161 167 173 179 180 175 172 171 169 168 168 167 168 165 160 157 154 146 144 147 146 145 145 142 142 144 142 134 129 130 132 133 133 112 102 121 130 127 127 109 102 115 117 107 105 104 104 107 107 106 104 100 100 107 108 107 113 117 113 110 125 140 141 138 142 143 142 142 135 132 145 157 149 136 135 135
135 135 144 149 149 152 153 157 160 162 168 174 179 180 176 177 177 175 175 173 172 172 167 163 162 156 143 143 149 151 150 150 148 148 149 144 138 135 134 131 130 144 144 112 111 124 127 127 119 108 111 115 114 113 113 113 110 109 109 107 105 104 104 103 104 110 112 110 107 107 116 122 128 138 143 146 150 147 142 143 158 153 135 140 145
139 141 153 158 159 164 163 163 165 168 171 174 177 179 179 181 182 180 179 177 177 178 174 168 164 153 142 147 155 154 154 154 151 151 151 146 146 145 138 135 134 139 147 135 119 123 129 132 128 113 106 110 118 118 116 117 114 111 111 111 111 109 103 99 98 102 102 100 100 99 102 106 109 121 135 143 149 150 147 143 153 154 144 154 159
147 152 160 164 166 168 165 166 172 176 174 174 177 180 182 184 183 183 181 178 181 184 179 170 164 154 150 156 161 159 157 155 152 153 154 152 153 152 146 142 140 138 138 137 131 128 130 135 137 127 109 102 116 123 117 115 113 111 111 111 112 108 101 94 93 98 98 92 90 92 98 102 102 117 134 143 149 154 156 155 152 153 154 161 166
146 154 160 163 163 164 167 169 172 176 174 174 178 183 186 185 183 183 182 182 186 186 177 168 163 157 157 163 165 163 159 156 154 154 157 156 154 153 154 150 143 140 140 140 139 134 131 133 137 134 119 103 111 121 119 117 113 110 110 109 109 108 98 89 90 97 97 91 89 91 94 93 94 108 122 137 154 161 169 166 153 149 156 159 149
139 152 155 151 146 152 165 166 162 167 173 177 182 187 189 187 186 186 186 187 188 184 175 168 163 160 163 167 166 164 160 156 155 157 158 157 155 156 154 149 143 141 139 139 142 140 136 133 130 129 125 115 114 118 119 121 119 115 113 108 105 106 99 89 88 93 94 92 90 91 94 90 90 97 95 100 130 146 160 171 169 162 146 134 120
139 148 148 141 127 134 154 157 153 163 177 186 191 192 190 188 188 189 190 191 188 182 179 175 167 164 167 168 167 165 162 160 159 159 158 155 155 157 152 146 144 142 140 137 138 138 138 137 133 131 132 128 124 124 128 131 128 124 119 112 109 110 106 96 91 92 94 94 90 87 90 90 89 92 87 86 99 104 108 141 173 176 154 134 125
127 121 125 128 131 145 157 157 157 169 183 193 196 197 196 193 191 191 191 193 189 184 184 181 174 168 168 169 169 167 166 164 163 160 157 153 154 154 150 147 146 143 141 139 139 140 141 142 140 138 137 133 130 129 130 131 127 122 119 116 115 116 113 106 100 99 100 98 92 87 87 88 87 85 80 81 88 89 87 91 132 165 156 143 136
123 123 133 136 151 169 167 158 159 172 186 197 200 201 201 198 195 192 193 195 192 188 186 183 178 171 167 169 170 171 171 168 164 161 158 152 151 151 148 147 145 143 142 142 144 146 145 144 142 141 140 137 136 135 131 129 127 125 124 124 121 118 116 113 111 111 111 109 102 96 93 89 89 87 84 83 83 87 86 78 104 148 152 145 137
130 135 144 149 162 179 175 160 160 172 184 193 198 205 206 203 198 192 192 195 192 188 184 180 179 174 168 170 173 174 174 171 166 162 159 152 148 149 149 147 144 145 147 148 149 147 144 144 145 146 144 141 140 139 135 132 133 133 129 128 127 123 119 118 117 115 117 120 114 109 104 99 98 97 92 87 83 90 92 84 104 136 141 141 136
130 137 147 158 157 167 171 151 153 168 181 187 195 207 207 201 198 190 186 188 186 183 180 176 177 176 171 171 175 178 177 172 167 161 157 155 151 150 151 148 147 150 153 153 152 150 149 149 148 147 146 145 145 143 141 139 139 140 138 136 134 130 127 127 125 118 118 123 120 117 116 110 104 99 90 85 90 97 97 93 108 131 135 140 142
142 145 152 160 156 162 161 135 146 170 182 185 189 196 196 193 198 193 183 178 174 175 176 172 172 178 178 175 175 179 180 171 164 161 159 158 157 156 155 151 152 157 158 157 156 155 155 153 150 150 150 152 151 148 150 151 148 146 147 148 145 138 135 136 136 132 129 128 126 128 128 118 108 104 94 94 107 111 104 102 112 130 136 141 149
121 131 141 137 140 148 135 118 144 173 183 188 183 177 185 192 196 190 178 168 165 171 178 175 173 180 184 184 180 179 177 167 160 159 160 162 161 161 161 159 160 162 160 161 163 161 162 161 158 158 159 157 154 151 155 160 159 152 143 145 150 147 143 144 146 147 144 138 132 133 137 132 123 114 99 98 117 125 120 115 119 127 134 141 147
27 63 66 60 86 111 111 116 153 181 184 185 175 169 182 185 174 151 155 160 162 168 176 176 173 177 186 191 186 175 168 162 158 159 163 165 166 168 169 167 166 166 166 168 169 166 168 171 170 167 165 163 161 161 167 169 163 157 148 145 151 150 144 145 152 154 150 142 132 126 133 140 137 123 103 104 122 131 134 131 128 127 126 133 147
32 52 56 53 67 82 92 122 170 198 170 135 116 123 156 156 120 109 141 156 160 168 177 179 174 163 153 151 110 127 142 152 160 169 173 172 172 176 175 170 170 171 173 180 178 170 173 180 179 176 172 171 172 172 176 173 162 160 160 157 156 156 151 147 149 153 153 148 143 142 143 143 146 137 121 124 127 129 140 143 141 137 125 126 139
49 50 50 53 64 55 48 60 53 41 71 87 90 79 51 50 68 64 58 68 86 152 180 190 194 184 148 75 65 118 140 148 164 177 183 183 181 180 175 173 177 178 178 186 183 174 179 189 187 184 180 180 186 185 182 177 169 169 172 169 166 163 162 161 155 153 154 149 145 152 158 158 162 162 155 149 134 129 142 147 144 143 135 130 128
61 59 58 58 67 60 50 56 50 52 86 97 89 85 77 64 73 66 52 53 59 110 152 162 184 185 168 140 154 165 166 166 171 177 182 184 182 181 180 179 181 182 183 191 188 181 186 193 192 192 190 190 196 193 185 185 183 180 180 177 174 171 171 175 170 161 161 164 157 156 162 167 173 178 176 171 155 137 140 145 144 142 138 134 126
67 64 61 58 65 68 66 71 68 70 90 95 81 82 94 92 87 90 124 166 172 164 158 148 155 162 152 141 157 171 178 180 178 179 180 178 178 182 187 191 194 193 193 196 190 185 192 199 198 200 201 200 202 196 189 189 186 181 182 180 177 183 186 180 174 170 169 182 193 192 183 177 180 190 196 194 187 166 154 154 154 154 150 140 133
62 57 55 53 53 55 59 68 74 76 83 92 97 99 99 98 108 127 140 145 155 173 165 131 122 144 143 149 163 173 185 188 184 185 184 179 182 186 188 197 205 198 195 198 194 191 200 209 209 210 209 206 203 196 190 190 186 182 184 185 188 201 203 194 193 197 192 195 205 207 205 198 192 195 205 210 210 207 195 183 176 176 179 172 159
64 60 58 56 52 52 52 50 49 50 53 59 79 110 121 114 111 116 114 110 113 156 167 142 132 144 151 165 172 178 192 198 199 201 190 181 187 192 191 198 199 187 186 193 197 200 206 213 215 216 214 208 204 199 196 199 199 197 199 202 210 222 226 222 220 223 224 222 220 219 216 213 205 199 202 214 219 224 223 209 199 199 203 198 178
72 67 62 58 49 48 50 47 43 40 39 39 45 66 106 119 113 109 112 123 132 138 138 129 123 130 155 169 177 190 206 210 213 215 199 191 201 204 202 207 204 192 189 190 194 201 208 217 222 222 221 218 214 211 210 214 217 217 219 221 222 227 234 238 236 237 236 231 230 234 232 226 218 207 202 212 220 224 224 218 210 204 200 192 183
78 72 67 64 55 51 51 48 45 41 39 40 43 46 50 60 93 121 126 131 135 131 123 111 105 112 129 139 154 185 208 206 209 208 196 200 211 208 210 221 221 215 213 211 212 214 218 228 235 234 233 233 234 235 234 234 235 232 229 226 224 224 229 234 235 237 240 238 239 244 242 235 227 216 208 210 215 217 216 215 210 200 191 185 184
73 69 67 66 63 62 59 53 49 43 37 39 45 46 44 46 57 83 99 99 93 92 99 109 119 136 153 156 163 177 184 183 184 186 187 193 200 203 214 232 237 238 240 240 241 241 240 243 245 243 242 240 241 245 247 248 245 240 233 228 227 231 233 233 235 238 243 246 247 248 246 240 230 218 211 209 214 218 214 212 212 205 197 192 190
67 63 61 62 61 60 56 52 48 44 40 41 44 45 45 48 53 58 63 65 62 58 59 63 70 80 94 116 148 166 170 173 176 176 178 181 185 201 222 235 240 246 251 251 251 252 252 252 252 250 249 248 247 248 251 252 245 240 236 232 232 237 240 242 247 251 254 254 252 248 246 240 227 216 211 209 214 219 214 212 213 208 202 203 206
63 59 55 53 55 55 51 47 44 44 45 44 43 44 45 47 49 49 50 53 55 50 45 43 45 46 47 48 50 56 65 86 122 143 156 170 181 197 218 236 249 258 262 265 264 262 260 259 257 253 250 252 253 251 251 253 248 242 239 238 237 239 243 249 254 256 256 253 250 246 243 236 225 215 211 209 210 212 207 203 202 200 202 208 213
71 69 64 59 58 60 57 49 43 43 45 44 43 43 44 45 45 43 42 45 49 46 39 35 36 37 37 35 32 32 35 39 43 53 63 104 192 204 214 232 255 269 272 276 277 274 272 269 264 257 248 246 250 252 251 251 251 249 245 242 240 242 244 247 248 248 247 247 245 241 235 230 223 213 207 207 209 208 201 192 189 194 200 206 212
86 82 79 74 69 65 61 54 47 41 38 38 41 44 44 44 42 41 41 42 43 40 35 31 30 29 30 29 26 23 23 23 26 30 31 30 30 26 231 237 252 267 269 277 285 285 282 277 273 268 257 245 242 246 249 252 253 254 251 245 242 241 240 240 238 238 237 232 228 227 226 225 221 211 205 206 208 205 197 190 189 193 195 195 200
86 83 80 76 72 65 59 56 53 46 35 30 34 39 42 41 39 39 40 40 38 34 31 29 26 22 21 20 18 17 15 14 15 13 9 8 12 14 6 341 312 292 274 263 262 268 277 278 276 273 265 252 244 244 249 253 254 253 251 248 243 236 231 230 229 225 219 213 213 216 219 220 217 211 206 206 205 202 201 200 198 192 189 189 191
81 82 82 76 71 67 62 57 55 51 42 35 33 36 41 42 39 39 38 34 31 28 25 23 21 19 17 12 9 8 6 5 4 1 356 351 349 349 346 342 337 328 311 285 260 247 248 260 269 272 268 259 250 246 247 250 253 252 248 246 243 234 225 219 216 210 204 203 208 210 213 218 217 208 202 201 199 199 204 205 199 193 192 197 200
57 65 79 80 72 66 62 57 54 52 48 44 40 40 43 42 39 38 34 26 20 17 15 13 10 9 8 5 3 2 360 358 354 349 346 343 338 333 327 324 320 318 319 314 292 262 248 246 249 257 263 262 254 250 249 252 256 254 248 243 238 229 219 212 209 205 198 191 187 187 191 201 203 197 192 191 191 193 200 198 193 196 199 204 206
50 52 68 78 73 66 63 58 52 49 48 46 45 44 41 38 35 32 25 18 14 11 9 6 1 359 359 356 354 352 350 350 350 347 343 339 335 331 325 318 311 307 306 307 306 299 285 267 251 245 248 252 250 250 252 253 252 248 242 238 230 220 212 208 204 199 194 188 182 178 176 178 184 186 187 189 191 192 195 192 192 200 205 205 201
54 51 63 76 75 69 67 62 53 50 48 47 47 41 36 35 33 26 18 15 14 12 9 8 5 3 1 357 355 352 347 343 341 341 341 340 337 334 329 323 314 305 301 299 299 301 302 298 278 253 243 243 245 247 246 243 241 238 234 229 221 212 205 202 196 189 188 189 186 181 179 177 181 185 187 189 190 187 185 181 182 186 184 174 171
55 48 58 74 76 70 66 60 55 54 50 46 46 41 37 36 32 23 16 13 10 8 6 6 5 5 3 2 359 356 354 350 345 341 339 338 337 335 334 334 330 320 307 298 296 295 297 300 298 285 269 252 242 239 237 232 230 229 228 227 221 213 204 198 197 193 190 188 184 182 182 180 180 182 181 178 175 171 165 159 157 158 155 153 157
57 51 59 72 74 71 68 63 58 56 51 46 44 40 36 32 26 18 14 11 8 6 5 3 3 0 358 356 354 353 353 352 348 344 340 337 336 333 331 332 334 333 326 314 305 300 297 297 296 295 292 266 240 234 234 232 229 227 226 229 228 222 210 196 198 204 202 191 184 188 189 182 177 177 175 171 169 164 156 151 150 151 151 153 158
66 63 71 78 76 72 71 67 60 54 49 44 40 37 34 30 23 16 12 10 6 5 5 4 1 357 354 352 349 347 347 346 345 346 344 342 340 338 336 335 333 333 333 330 325 319 314 313 307 300 292 267 240 236 236 232 230 227 226 227 230 229 223 211 207 212 211 201 194 195 192 184 179 179 174 171 169 163 156 151 145 139 142 146 149
78 79 83 84 80 72 68 67 62 53 48 43 39 37 35 30 23 16 11 8 4 2 0 359 357 353 352 350 347 346 346 344 344 347 346 345 346 346 345 345 344 343 342 341 343 340 336 336 335 325 309 267 230 229 232 232 233 231 226 225 227 227 226 221 214 212 211 205 196 191 187 183 180 179 175 172 167 157 149 141 129 131 145 150 149
74 81 82 80 75 67 65 69 63 49 41 40 40 38 32 25 17 10 3 360 360 0 358 355 353 350 347 347 347 348 348 347 345 345 344 343 343 343 344 345 346 348 346 343 342 340 334 330 330 330 326 305 243 223 224 234 248 248 235 231 234 234 231 222 211 205 204 200 190 183 180 178 174 169 167 166 161 153 148 141 138 149 155 151 148
84 82 81 78 71 57 58 68 60 37 30 38 39 34 25 15 5 358 353 351 354 357 356 352 349 346 346 349 349 347 344 343 341 339 339 338 336 336 337 337 339 341 340 338 338 337 334 329 320 315 317 317 298 250 231 232 240 241 234 230 247 248 237 223 211 202 196 189 180 174 171 168 166 162 160 159 156 153 151 149 150 154 151 145 143
101 94 86 81 75 57 55 62 51 29 30 36 32 23 14 4 356 352 354 356 355 353 351 349 346 345 345 345 343 340 338 337 335 330 328 330 331 331 331 328 328 328 328 330 334 335 335 334 327 315 307 304 304 293 264 244 242 241 236 232 236 236 221 217 213 202 191 181 173 169 167 165 163 161 159 157 155 152 148 145 147 150 151 153 153
114 112 106 100 97 86 76 66 41 30 32 24 14 16 15 4 359 1 5 4 357 351 348 344 340 339 339 338 338 337 334 333 331 326 323 322 322 324 325 324 323 322 319 317 319 324 329 334 332 326 314 298 293 295 287 263 251 250 246 237 227 215 198 202 200 189 179 173 169 166 165 164 162 161 159 157 156 155 151 147 145 146 152 161 159
120 114 110 108 104 99 96 81 48 41 24 355 357 38 30 12 8 11 9 3 355 348 341 336 333 332 332 334 335 334 331 329 326 323 321 319 317 316 317 318 320 321 319 315 313 314 319 324 329 330 324 307 287 281 283 275 258 250 244 232 219 206 189 186 190 184 174 170 166 163 165 167 165 162 161 160 161 160 157 155 154 148 147 154 155